Terug naar catalogus

GAOFEN SHIPIN WEIXING

ActiefWetenschapSSO
NORAD 59680·PAYLOAD·🇨🇳 China
Deze satellietnaam is nog niet bevestigd door officiële bronnen.

Gelanceerd May 7, 2024 vanaf Taiyuan Satellite Launch Center

Loading…

Volgende Passages (komende 24 uur)

TLE

VersSource: Space-Track

Epoch: Sep 14, 2026, 22:07 UTC

1 59680U 24085D   26257.92184888  .00012137  00000-0  32942-3 0  9994
2 59680  97.3168 333.3001 0014151  93.2744 267.0120 15.37645222131446

Volg GAOFEN SHIPIN WEIXING in realtime met AllMySat

Download on the App Store